Regional Weather Roundup
Issued by NWS

Home | Current Version | Previous Version | Graphics & Text | Print | Product List | Glossary On
Versions: 1 2 3 4 5 6 7 8 9 10 11 12 13 14 15 16 17 18 19 20 21 22 23 24 25 26 27 28 29 30 31 32 33 34 35 36 37 38 39 40 41 42 43 44 45 46 47 48 49 50
000
ASUS43 KMKX 190400
RWRWI

WISCONSIN REGIONAL WEATHER ROUNDUP
NATIONAL WEATHER SERVICE MILWAUKEE/SULLIVAN WI
1100 PM CDT FRI AUG 18 2017

NOTE: "FAIR" INDICATES FEW OR NO CLOUDS BELOW 12,000 FEET WITH NO
SIGNIFICANT WEATHER AND/OR OBSTRUCTIONS TO VISIBILITY.

WIZ001-002-006>008-014>016-023>028-190500-
NORTHWEST WISCONSIN

CITY           SKY/WX    TMP DP  RH WIND       PRES   REMARKS
SUPERIOR ARPT    N/A     60  59  96 SW7       29.86S
ASHLAND        FAIR      64  62  93 SW9       29.86S
HAYWARD        FOG       58  57  97 CALM      29.90S VSB 1/4
SIREN          FAIR      62  61  96 CALM      29.90S
CUMBERLAND     FOG       61  59  94 CALM      29.92R VSB 1/4
RICE LAKE      FOG       61  60  97 CALM      29.92S VSB 1/4
CHETEK           N/A     62  62 100 SW3       29.91S FOG
LADYSMITH      FAIR      64  62  94 CALM      29.92F
EAU CLAIRE     NOT AVBL
MENOMONIE      FAIR      63  61  94 SW5       29.92S
NEW RICHMOND   FAIR      62  61  96 SW7       29.93R
OSCEOLA        FAIR      60  60 100 CALM      29.95R
$$

WIZ003>005-009-010-017-018-190500-
NORTH CENTRAL WISCONSIN

CITY           SKY/WX    TMP DP  RH WIND       PRES   REMARKS
MANITOWISH WTR FOG       55  55 100 CALM      29.90R VSB 1/2
ARBOR VITAE    FAIR      57  55  94 CALM      29.90R
WOODRUFF       FAIR      57  55  94 CALM      29.90R
RHINELANDER    FAIR      58  57  97 W6        29.91R
EAGLE RIVER    FAIR      51  51 100 CALM      29.90R FOG
LAND O LAKES   FAIR      52  52 100 CALM      29.91R FOG
PHILLIPS       FAIR      60  60 100 CALM      29.90R
TOMAHAWK         N/A     55  54  96 CALM      29.91S
MEDFORD        MOCLDY    61  61  98 W3        29.91S FOG
MERRILL        NOT AVBL
$$

WIZ029-030-035-036-043>047-190500-
CENTRAL WISCONSIN

CITY           SKY/WX    TMP DP  RH WIND       PRES   REMARKS
WAUSAU         FAIR      62  60  93 NW8       29.89R
MOSINEE        FAIR      63  61  94 W8        29.91S
MARSHFIELD     FAIR      63  61  93 NW8       29.91S
STEVENS POINT  FAIR      63  62  99 W3        29.91R
WAUPACA        FAIR      67  63  85 W5        29.90R
WAUTOMA        CLOUDY    65  63  93 W5        29.91R
WISC RAPIDS    CLOUDY    65  64  97 NW6       29.92R
CAMP DOUGLAS   NOT AVBL
$$

WIZ011>013-019>022-031-037>040-048>050-190500-
NORTHEAST WISCONSIN

CITY           SKY/WX    TMP DP  RH WIND       PRES   REMARKS
ANTIGO         FAIR      59  58  99 W5        29.90S
SHAWANO        FAIR      65  61  85 W5        29.87S
OCONTO         FAIR      57  56  97 W3        29.86R
STURGEON BAY   CLOUDY    60  56  86 CALM      29.87R
GREEN BAY      FAIR      64  63  96 NW3       29.88R
MANITOWOC      NOT AVBL
APPLETON       MOCLDY    64  59  82 W6        29.87R
CLINTONVILLE   FAIR      64  59  82 W5        29.88R
OSHKOSH        CLOUDY    66  60  81 W5        29.88R
$$

WIZ032>034-041-042-053>061-190500-
SOUTHWEST WISCONSIN

CITY           SKY/WX    TMP DP  RH WIND       PRES   REMARKS
LA CROSSE      FAIR      64  62  93 CALM      29.93R
SPARTA         FAIR      56  56 100 CALM      29.94R
VIROQUA        MOCLDY    58  58 100 NW5       29.95R VSB 1/2
BOSCOBEL       FAIR      61  59  93 CALM      29.93S FOG
PRAIRIE DU CHI FAIR      60  58  93 CALM      29.93R
PLATTEVILLE    FAIR      63  62  99 W3        29.94R
$$

WIZ056-057-062-063-064-067-068-190500-
SOUTH CENTRAL WISCONSIN

CITY           SKY/WX    TMP DP  RH WIND       PRES   REMARKS
REEDSBURG      MOCLDY    63  63 100 CALM      29.91S
BARABOO/DELLS  CLOUDY    64  60  85 CALM      29.91S
LONE ROCK      FAIR      63  62  97 CALM      29.92R
MINERAL POINT  FAIR      61  61 100 CALM      29.93S
MADISON        MOCLDY    65  61  87 VRB3      29.90S
MIDDLETON      FAIR      64  64 100 W5        29.92R
WATERTOWN      CLOUDY    65  62  89 W3        29.89S
MONROE         FAIR      64  59  82 W7        29.92S
JANESVILLE     FAIR      63  63 100 CALM      29.90S
$$

WIZ051-052-058>065-066-070>072-190500-
SOUTHEAST WISCONSIN

CITY           SKY/WX    TMP DP  RH WIND       PRES   REMARKS
MILWAUKEE      MOCLDY    70  60  70 NW6       29.88R
WAUKESHA       MOCLDY    63  57  82 W3        29.91
MILWAUKEE/TIMM MOCLDY    64  55  72 W5        29.89R
RACINE         FAIR      67  60  78 W5        29.90R
KENOSHA        FAIR      65  58  78 W6        29.90R
FOND DU LAC    CLOUDY    66  59  78 W6        29.89R
SHEBOYGAN      FAIR      64  62  93 W5        29.88R
WEST BEND      CLOUDY    64  61  88 W5        29.89R
JUNEAU         CLOUDY    65  61  85 CALM      29.91R
$$

LSZ147-162-190500-
LAKE SUPERIOR

STATION/POSITION TIME  TEMP    WIND        PRES    WAVE
                       AIR SEA DIR/SP/G            HT/PER
                 (UTC) (F)     (DEG/KT/KT) (MB)    (FT/S)
W MID LAKE BUOY  0250   63 60  230/ 10/ 10 1009.5R   1/ 4
DEVILS ISLAND    0300   65     220/ 10/ 12 1010.0S
PORT WING        0220   67     190/  4/ 10 1010.8
SAXON HARBOR     0330   63     200/  5/  9 1010.5S
$$

LMZ867-665-643>646-190500-
LAKE MICHIGAN

STATION/POSITION TIME  TEMP    WIND        PRES    WAVE
                       AIR SEA DIR/SP/G            HT/PER
                 (UTC) (F)     (DEG/KT/KT) (MB)    (FT/S)
S GREEN BAY BUOY 0330   68 70  350/  8/ 10 1010.8R
N MID LAKE BUOY  0250   65 67  300/ 12/ 16 1010.3R   2/ 4
NORTHPORT PIER   0340   67     290/  6/  8 1010.5R
KEWAUNEE LAKESHO 0330   65     290/  2/  2 1010.5R
SHEBOYGAN LAKESH 0300   68     280/  8/ 10 1010.8R
PORT WASHINGTON  0330   70     280/  3/  6 1012.5R
ATWATER BUOY     0239   71 71  280/  8/ 10 1011.7R
MILWAUKEE LAKESH 0330   70     290/  6/  8   N/A
S MID LAKE BUOY  0250   71 71  190/  6/  8 1011.1R   1/ 4
KENOSHA   LAKESH 0300   71     300/  7/ 12 1011.5
$$

TC  - TEMPERATURE IN CELSIUS
VSB - VISIBILITY IN STATUTE MILES
WCI - WIND CHILL INDEX
HX  - HEAT INDEX





USA.gov is the U.S. government's official web portal to all federal, state and local government web resources and services.